Date String (YYYY-MM-DD hh:mm:ss) UTC,Instrument flags,absolute air pressure of the measurement (hPa),sample flow rate (lpm),inlet stack bypass flow (lpm),air temperature of the measurement (°C),ambient temperature measured by the external sensor (°C),aerosol sample conditioner tube jacket temperature (°C),OPC LED temperature (°C),internal box temperature (°C),relative humidity of the measurement (%),span deviation,mass concentration of particles derived from Lorenz-Mie calculation of OPC scattering (μg/m³),mass concentration of particles derived from Lorenz-Mie calculation of OPC scattering (μg/m³),mass concentration of particles derived from Lorenz-Mie calculation of OPC scattering (μg/m³)
DateTimeUTC,F1_M11,P_M11,Q1_M11,Q2_M11,T1_M11,T2_M11,T3_M11,T4_M11,T5_M11,U1_M11,ZSPAN_M11,X2_M11,X0_M11,X1_M11
2024-05-24 08:00:00,SystemResetWarning,0823.4,5.00,000.00,027.2,026.2,000.0,035.6,028.9,006.6,0000.0,0001.04,0001.95,0000.63
2024-05-24 08:01:00,SystemResetWarning,0823.5,5.01,000.00,027.2,026.2,000.0,035.6,028.9,006.6,0000.0,0001.04,0001.94,0000.63
2024-05-24 08:02:00,SystemResetWarning,0823.5,5.00,000.00,027.1,026.2,000.0,035.6,028.9,006.5,0000.0,0001.01,0001.87,0000.63
2024-05-24 08:03:00,SystemResetWarning,0823.5,5.00,000.00,027.1,026.2,000.0,035.5,028.9,006.5,0000.0,0000.99,0001.78,0000.62
2024-05-24 08:04:00,SystemResetWarning,0823.5,5.01,000.00,027.1,026.2,000.0,035.5,028.9,006.3,0000.0,0000.99,0001.76,0000.61
2024-05-24 08:05:00,SystemResetWarning,0823.4,5.00,000.00,027.1,026.2,000.0,035.5,028.8,006.1,0000.0,0001.00,0001.83,0000.61
2024-05-24 08:06:00,SystemResetWarning,0823.4,5.00,000.00,027.1,026.2,000.0,035.5,028.8,006.1,0000.0,0001.03,0002.00,0000.61
2024-05-24 08:07:00,SystemResetWarning,0823.4,5.00,000.00,027.1,026.2,000.0,035.5,028.8,007.4,0000.0,0001.03,0002.11,0000.61
2024-05-24 08:08:00,SystemResetWarning,0823.4,5.00,000.00,027.1,026.2,000.0,035.5,028.8,008.1,0000.0,0001.13,0002.59,0000.63
2024-05-24 08:09:00,SystemResetWarning,0823.5,5.00,000.00,027.1,026.2,000.0,035.4,028.8,007.7,0000.0,0001.29,0005.35,0000.67
2024-05-24 08:10:00,SystemResetWarning,0823.5,5.00,000.00,027.1,026.2,000.0,035.4,028.8,008.1,0000.0,0001.40,0007.03,0000.69
2024-05-24 08:11:00,SystemResetWarning,0823.5,5.00,000.00,027.1,026.2,000.0,035.4,028.8,008.7,0000.0,0001.49,0008.48,0000.70
2024-05-24 08:12:00,SystemResetWarning,0823.5,4.99,000.00,027.1,026.2,000.0,035.4,028.8,009.1,0000.0,0001.65,0009.32,0000.72
2024-05-24 08:13:00,SystemResetWarning,0823.5,5.00,000.00,027.0,026.2,000.0,035.4,028.8,008.9,0000.0,0001.78,0009.55,0000.74
2024-05-24 08:14:00,SystemResetWarning,0823.5,5.00,000.00,027.0,026.2,000.0,035.4,028.8,008.9,0000.0,0001.89,0010.03,0000.78
2024-05-24 08:15:00,SystemResetWarning,0823.5,5.00,000.00,027.0,026.2,000.0,035.4,028.8,008.8,0000.0,0002.01,0011.59,0000.81
2024-05-24 08:16:00,SystemResetWarning,0823.6,5.00,000.00,027.0,026.1,000.0,035.4,028.7,008.9,0000.0,0002.08,0011.81,0000.83
2024-05-24 08:17:00,SystemResetWarning,0823.6,5.01,000.00,027.0,026.1,000.0,035.4,028.7,008.9,0000.0,0002.22,0013.80,0000.87
2024-05-24 08:18:00,SystemResetWarning,0823.6,4.99,000.00,027.0,026.1,000.0,035.4,028.7,008.9,0000.0,0002.43,0014.54,0000.90
2024-05-24 08:19:00,SystemResetWarning,0823.6,5.00,000.00,027.0,026.1,000.0,035.3,028.7,008.9,0000.0,0002.54,0015.03,0000.90
2024-05-24 08:20:00,SystemResetWarning,0823.6,5.00,000.00,027.0,026.1,000.0,035.3,028.7,009.0,0000.0,0002.52,0014.74,0000.90
2024-05-24 08:21:00,SystemResetWarning,0823.6,4.99,000.00,027.0,026.1,000.0,035.3,028.7,009.1,0000.0,0002.55,0014.36,0000.91
2024-05-24 08:22:00,SystemResetWarning,0823.6,5.00,000.00,027.0,026.1,000.0,035.3,028.7,009.4,0000.0,0002.57,0014.26,0000.93
2024-05-24 08:23:00,SystemResetWarning,0823.6,5.02,000.00,027.0,026.1,000.0,035.3,028.7,009.6,0000.0,0002.58,0013.73,0000.95
2024-05-24 08:24:00,SystemResetWarning,0823.6,4.99,000.00,027.0,026.1,000.0,035.3,028.7,009.7,0000.0,0002.56,0013.68,0000.95
2024-05-24 08:25:00,SystemResetWarning,0823.7,4.99,000.00,027.0,026.1,000.0,035.3,028.7,009.7,0000.0,0002.62,0014.24,0000.96
2024-05-24 08:26:00,SystemResetWarning,0823.7,5.01,000.00,027.0,026.1,000.0,035.3,028.7,009.7,0000.0,0002.73,0012.99,0000.98
2024-05-24 08:27:00,SystemResetWarning,0823.8,5.01,000.00,027.0,026.1,000.0,035.3,028.7,009.9,0000.0,0002.78,0013.48,0000.98
2024-05-24 08:28:00,SystemResetWarning,0823.8,4.99,000.00,027.0,026.1,000.0,035.3,028.7,010.0,0000.0,0002.86,0011.95,0000.98
2024-05-24 08:29:00,SystemResetWarning,0823.8,4.99,000.00,026.9,026.1,000.0,035.3,028.7,010.0,0000.0,0002.85,0011.44,0000.98
2024-05-24 08:30:00,SystemResetWarning,0823.8,5.01,000.00,027.0,026.1,000.0,035.3,028.7,010.0,0000.0,0002.79,0011.47,0001.00
2024-05-24 08:31:00,SystemResetWarning,0823.8,5.01,000.00,027.0,026.1,000.0,035.3,028.7,010.1,0000.0,0002.85,0011.29,0001.02
2024-05-24 08:32:00,SystemResetWarning,0823.8,5.00,000.00,027.0,026.1,000.0,035.3,028.7,010.2,0000.0,0002.89,0011.18,0001.03
2024-05-24 08:33:00,SystemResetWarning,0823.8,5.01,000.00,027.0,026.1,000.0,035.3,028.7,010.2,0000.0,0002.96,0010.38,0001.05
2024-05-24 08:34:00,SystemResetWarning,0823.8,5.00,000.00,027.0,026.2,000.0,035.3,028.7,010.3,0000.0,0002.97,0010.31,0001.05
2024-05-24 08:35:00,SystemResetWarning,0823.9,4.99,000.00,027.0,026.1,000.0,035.3,028.7,010.4,0000.0,0002.93,0011.28,0001.07
2024-05-24 08:36:00,SystemResetWarning,0824.0,5.00,000.00,027.0,026.2,000.0,035.3,028.7,010.4,0000.0,0002.99,0011.29,0001.08
2024-05-24 08:37:00,SystemResetWarning,0824.0,4.99,000.00,027.0,026.2,000.0,035.3,028.7,010.6,0000.0,0002.95,0012.47,0001.08
2024-05-24 08:38:00,SystemResetWarning,0824.1,5.00,000.00,027.0,026.2,000.0,035.3,028.7,010.6,0000.0,0002.92,0013.00,0001.07
2024-05-24 08:39:00,SystemResetWarning,0824.1,5.01,000.00,027.0,026.2,000.0,035.3,028.7,010.6,0000.0,0002.86,0012.88,0001.08
2024-05-24 08:40:00,SystemResetWarning,0824.2,5.00,000.00,027.0,026.2,000.0,035.3,028.7,010.4,0000.0,0002.74,0013.05,0001.09
2024-05-24 08:41:00,SystemResetWarning,0824.1,5.01,000.00,027.0,026.2,000.0,035.3,028.7,010.5,0000.0,0002.76,0013.03,0001.09
2024-05-24 08:42:00,SystemResetWarning,0824.3,4.99,000.00,027.0,026.2,000.0,035.3,028.7,010.5,0000.0,0002.70,0012.48,0001.08
2024-05-24 08:43:00,SystemResetWarning,0824.3,4.99,000.00,027.0,026.2,000.0,035.3,028.7,010.4,0000.0,0002.69,0012.24,0001.06
2024-05-24 08:44:00,SystemResetWarning,0824.4,5.00,000.00,027.0,026.2,000.0,035.3,028.7,010.3,0000.0,0002.69,0012.55,0001.05
2024-05-24 08:45:00,SystemResetWarning,0824.5,5.00,000.00,026.9,026.1,000.0,035.3,028.7,010.2,0000.0,0002.62,0012.61,0001.03
2024-05-24 08:46:00,SystemResetWarning,0824.4,5.00,000.00,026.9,026.1,000.0,035.3,028.7,010.2,0000.0,0002.59,0011.46,0001.01
2024-05-24 08:47:00,SystemResetWarning,0824.3,5.00,000.00,026.9,026.1,000.0,035.3,028.7,010.1,0000.0,0002.54,0011.05,0000.99
2024-05-24 08:48:00,SystemResetWarning,0824.0,5.00,000.00,026.9,026.1,000.0,035.3,028.7,009.4,0000.0,0002.43,0009.65,0000.97
2024-05-24 08:49:00,SystemResetWarning,0823.9,4.99,000.00,026.9,026.0,000.0,035.3,028.7,009.8,0000.0,0002.38,0008.65,0000.96
2024-05-24 08:50:00,SystemResetWarning,0823.9,5.00,000.00,026.9,026.0,000.0,035.3,028.6,009.7,0000.0,0002.31,0008.49,0000.93
2024-05-24 08:51:00,SystemResetWarning,0823.9,5.01,000.00,026.8,025.9,000.0,035.3,028.5,009.9,0000.0,0002.25,0007.95,0000.90
2024-05-24 08:52:00,SystemResetWarning,0823.7,5.00,000.00,026.8,025.9,000.0,035.3,028.5,010.0,0000.0,0002.17,0007.48,0000.87
2024-05-24 08:53:00,SystemResetWarning,0823.7,5.00,000.00,026.8,025.9,000.0,035.3,028.5,009.7,0000.0,0002.14,0007.49,0000.85
2024-05-24 08:54:00,SystemResetWarning,0823.5,4.99,000.00,026.7,025.8,000.0,035.3,028.3,009.1,0000.0,0002.04,0007.61,0000.83
2024-05-24 08:55:00,SystemResetWarning,0823.8,4.99,000.00,026.6,025.7,000.0,035.2,028.2,009.2,0000.0,0001.89,0007.36,0000.80
2024-05-24 08:56:00,SystemResetWarning,0824.1,5.00,000.00,026.6,025.6,000.0,035.2,028.2,009.7,0000.0,0001.81,0007.07,0000.78
2024-05-24 08:57:00,SystemResetWarning,0824.2,5.00,000.00,026.6,025.6,000.0,035.2,028.2,009.8,0000.0,0001.76,0006.91,0000.77
2024-05-24 08:58:00,SystemResetWarning,0824.3,4.99,000.00,026.6,025.6,000.0,035.2,028.2,009.5,0000.0,0001.63,0006.46,0000.75
2024-05-24 08:59:00,SystemResetWarning,0824.5,5.00,000.00,026.6,025.6,000.0,035.2,028.3,009.8,0000.0,0001.59,0007.19,0000.74
